Location: New Canada
(47.1017°N, 68.5042°W)
Time: 12:44:15
(UTC+00:00)

N. Korean satellite - Pass Details

Date: 05 December 2022
Orbit: 407 x 441 km, 97.3° (Epoch: 05 February)

Event Time Altitude Azimuth Distance (km) Brightness Sun altitude
Rises 08:58:55 0° 29° (NNE) 2,518 10.5 -30.6°
Reaches altitude 10° 09:01:36 10° 51° (NE) 1,628 9.8 -30.1°
Maximum altitude 09:03:53 16° 92° (E) 1,274 9.5 -29.7°
Drops below altitude 10° 09:06:08 10° 133° (SE) 1,601 9.7 -29.4°
Sets 09:08:43 0° 155° (SSE) 2,456 10.5 -28.9°
